Location: York
(31.8935°S, 116.7682°E)
Time: 06:26:38
(UTC+08:00)

Envisat - Pass Details

Date: 12 December 2021
Orbit: 764 x 766 km, 98.2° (Epoch: 16 January)

Event Time Altitude Azimuth Distance (km) Brightness Sun altitude
Rises 03:54:55 0° 31° (NNE) 3,218 6.2 -12.5°
Reaches altitude 10° 03:57:18 10° 38° (NE) 2,300 5.5 -12.1°
Maximum altitude 04:02:03 42° 107° (ESE) 1,093 4.4 -11.3°
Drops below altitude 10° 04:06:52 10° 177° (S) 2,328 6.1 -10.5°
Sets 04:09:17 0° 183° (S) 3,261 6.7 -10.1°
